Dewpoint
51 51 50 50 49 50 50 50 51 52 53 53 54 55 56 56 56 56 55 54 52 51
51 50 50 50 50 50 50 50 51 52 52 54 54 55 55 55 55 55 55 55 53 52
51 51 51 51 50 50 50 51 51 52 53 53 54 55 55 56 56 56 55 54 53 52
51 51 51 50 50 50 50 50 50 51 52 53 54 55 56 56 56 55 55 55 53 52
51 51 51 50 50 51 50 50 51 51 52 53 54 55 56 56 55 54 53 53 51 51
50 51 50 50 51 51 51 52 52 52 53 53 53 55 56 55 54 52 53 52 51 50
50 50 51 51 51 51 51 51 52 53 53 54 54 55 54 54 54 53 52 51 49 48
49 49 49 51 52 52 52 52 53 53 54 55 55 55 54 53 51 50 48 47 47 46
49 49 50 50 51 52 52 52 54 54 54 55 55 54 51 51 50 49 46 44 43 43
50 51 51 51 51 52 52 53 55 55 55 55 54 50 48 48 48 46 44 42 40 38
52 52 52 53 53 54 54 55 55 54 52 50 48 46 45 44 43 42 41 40 38 35
53 53 54 54 53 51 50 48 46 46 45 44 42 41 41 40 37 35 34 33 32 31
54 52 52 50 47 44 43 40 38 38 39 38 37 38 37 35 33 30 29 29 28 27
51 49 45 43 41 39 36 34 33 32 31 33 35 35 34 33 31 28 26 24 23 25
Wind_Speed
27 23 22 24 22 20 18 16 14 16 17 17 15 15 15 15 15 15 16 18 18 16
26 27 25 24 18 20 19 18 17 17 17 16 17 18 18 15 16 16 17 17 17 17
27 27 25 22 25 25 21 20 20 21 21 20 20 18 18 15 15 16 14 14 15 15
28 28 27 28 30 33 30 28 28 29 26 24 24 21 20 20 16 18 21 20 20 18
27 28 30 31 29 24 25 25 26 22 24 24 22 22 20 18 17 21 15 17 18 21
28 30 33 32 30 27 28 27 23 23 25 25 23 19 20 20 20 21 21 20 19 16
32 35 32 29 28 28 28 27 26 24 24 23 19 21 18 20 21 19 17 17 15 16
30 28 27 26 26 26 26 26 24 22 22 21 20 18 20 20 18 16 15 14 13 13
25 26 27 27 27 26 25 24 22 25 24 21 20 19 25 23 19 17 16 15 12 13
24 25 25 24 25 25 24 22 23 22 20 21 19 20 25 22 15 16 16 18 18 15
24 24 22 22 23 21 19 19 17 17 16 16 13 19 21 18 15 15 15 17 18 19
22 20 19 18 14 12 12 10 9 9 11 11 10 20 24 20 18 19 17 14 15 17
15 14 14 14 12 8 12 13 14 15 13 16 18 22 20 20 19 20 18 17 16 16
15 16 16 14 13 16 17 18 17 20 17 17 14 16 19 19 16 18 17 15 13 11
Wind_Direction
202 206 210 214 218 221 226 226 217 218 225 229 227 228 227 229 231 225 228 231 226 225
202 205 210 216 216 223 229 230 227 230 235 231 229 226 224 224 226 222 220 219 223 219
205 207 209 207 214 219 225 228 232 237 234 232 227 223 222 221 221 217 216 226 228 228
205 205 206 211 215 217 219 217 218 224 228 227 225 219 215 220 220 215 222 238 226 240
205 205 209 215 220 219 221 224 229 229 224 225 227 227 219 218 218 232 225 224 219 230
203 206 212 214 212 211 217 224 221 217 218 225 223 222 220 221 213 213 215 223 222 222
209 212 214 215 215 214 216 219 218 217 220 223 223 221 216 215 215 214 217 221 206 197
212 215 217 218 218 218 220 222 219 220 226 229 231 217 214 212 209 206 201 195 182 184
208 209 213 216 217 220 222 225 222 222 224 226 229 218 203 198 202 198 183 172 151 145
207 208 211 215 220 223 225 224 224 225 219 216 212 200 194 186 176 171 161 150 144 130
204 209 208 209 217 220 221 220 213 208 196 188 185 177 173 150 135 135 136 143 142 137
199 203 200 196 182 174 173 160 148 142 147 154 144 146 136 122 118 110 103 105 115 125
169 152 151 152 151 120 118 113 103 93 96 116 125 126 127 121 123 118 112 99 97 103
135 136 130 119 118 119 112 105 98 92 75 76 91 111 117 120 122 126 117 113 112 110